Find Starlink 3546

NORAD ID: 51718 Int'l Des: 2022-016 Owner: SPXS Country: US Constellation: starlink operational
LEOCIRCULAR

現在のビュー

3D地球を読み込み中...

About Starlink 3546

Starlink 3546 (NORAD 51718) is a starlink constellation satellite (v1.5) launched Feb 21, 2022 by SPXS of US. It operates in LEO, CIRCULAR orbit with a mass of 297.00 kg.

Starlink 3546について

説明を読み込み中...

次回通過

Passes for default location (London). Set your location on the main map for personalized predictions.

高度履歴

Loading altitude history...

軌道要素

1 51718U 22016E 26160.55170483 .00005506 00000-0 27105-3 0 9995
2 51718 53.2109 268.5379 0001954 206.4492 153.6405 15.19483064238536
Epoch: Jun 9, 2026 • Age: 17 hours

現在のステータス

高度 509.2 km
速度 7.61 km/s
衛星直下点 2.02°N, 91.15°W
打ち上げ日 Feb 21, 2022
運用期間 4.2 years
タイプ internet

技術仕様

分類 Payload
質量 297.00 kg
乾燥質量 275.00 kg
総質量 297.00 kg
長さ 0.20 m
直径 2.80 m
スパン 9.00 m
形状 Box + pan
製造者 SPXS
バスタイプ Starlink
フェーズステータス In Orbit
所有者/国 SPXS/US

Most Searched